User: anonymous   Login
Location: Unspecified
(0.0000°N, 0.0000°E)
Time: 06:46:53
(UTC+00:00)
Language:

Diapason D-1A - Orbit

View from above orbital plane
View from above orbital plane
View from above satellite
View from above satellite

Ground track
Ground track

The orbit data is extracted from the following two-line orbital elements,

1  2016U 66013A   19081.93768210 +.00000049 +00000-0 +71747-5 0  9994
2  2016 034.0996 305.0479 1188004 270.4460 076.0443 12.59745710406527
Epoch (UTC): 22 March 2019 22:30:15
Eccentricity: 0.1188004
inclination: 34.0996°
perigee height: 497 km
apogee height: 2351 km
right ascension of ascending node: 305.0479°
argument of perigee: 270.4460°
revolutions per day: 12.59745710
mean anomaly at epoch: 76.0443°
orbit number at epoch: 40652

The dashed part of the orbit path shows where the satellite is in the earth's shadow,  

DLR